Flag for U.S.A. Weather past 2 weeks in Waterbury, Connecticut, U.S.A.

Now
45 °F

Low clouds.


Feels Like: 39 °F
Forecast: 37 / 47 °F
Wind: 10 mph from North

Location: Oxford

Current Time: Mar 26, 2015 at 10:18:52 PM

Latest Report: Mar 26, 2015 at 9:55 PM


Visibility: 8 mi

Pressure: 29.68 "Hg

Humidity: 81%

Dew point: 39 °F

Location of WaterburyLocation

Historic Weather in Waterbury — Graph

°F

Waterbury temperature yesterday

Maximum temperature yesterday: 45 °F (at 12:50 PM)
Minimum temperature yesterday: 19 °F (at 5:35 AM)
Average temperature yesterday: 31 °F

Past Weeks' High & Low Weather Summary

 TemperatureHumidityPressure
High54 °F (Mar 26, 6:50 PM)87% (Mar 14, 11:15 PM)30.64 "Hg (Mar 14, 11:15 PM)
Low16 °F (Mar 23, 6:50 AM)23% (Mar 12, 5:55 PM)29.51 "Hg (Mar 17, 2:50 PM)
Average31 °F52%30.09 "Hg
* Reported Mar 11 9:15 PM — Mar 26 9:15 PM, Waterbury, Weather by CustomWeather, © 2015

Note: Actual official high and low records may vary slightly from our data, if they occured in-between our weather recording intervals... More about our weather records

Advertising

Waterbury weather history for previous 24 hours

 ConditionsComfort  
Time TempWeatherWind HumidityBarometerVisibility
9:15 PM
Thu, Mar 26
48 °FLow clouds.12 mph82%29.67 "Hg3 mi
8:52 PM52 °FFog.8 mph82%29.66 "Hg0 mi
7:50 PM54 °FFog.6 mph82%29.64 "Hg0 mi
6:50 PM54 °FFog.9 mph82%29.64 "Hg0 mi
5:50 PM50 °FFog.6 mph82%29.66 "Hg0 mi
3:50 PM46 °FLight rain. Fog.6 mph87%29.70 "Hg0 mi
2:50 PM48 °FLight rain. Fog.6 mph82%29.74 "Hg0 mi
1:50 PM46 °FLight rain. Fog.8 mph76%29.81 "Hg1 mi
12:50 PM45 °FFog.5 mph81%29.83 "Hg1 mi
11:50 AM43 °FFog.No wind81%29.88 "Hg1 mi
10:50 AM43 °FFog.No wind76%29.93 "Hg1 mi
9:50 AM41 °FFog.No wind81%29.95 "Hg0 mi
8:50 AM37 °FFog.No wind81%29.98 "Hg0 mi
7:50 AM37 °FFog.No wind81%29.98 "Hg0 mi
6:50 AM37 °FFog.No wind81%29.99 "Hg0 mi
5:50 AM37 °FFog.6 mph81%30.00 "Hg0 mi
5:35 AM37 °FLow clouds.No wind81%30.00 "Hg0 mi
5:15 AM37 °FLow clouds.No wind81%30.00 "Hg0 mi
4:55 AM37 °FLow clouds.No wind75%30.00 "Hg1 mi
4:35 AM37 °FLow clouds.No wind81%30.00 "Hg0 mi
4:15 AM37 °FLow clouds.No wind75%30.01 "Hg0 mi
3:55 AM36 °FLow clouds.5 mph81%30.04 "Hg0 mi
3:35 AM36 °FLow clouds.3 mph81%30.04 "Hg0 mi
3:15 AM36 °FLow clouds.No wind81%30.04 "Hg0 mi
2:55 AM36 °FLow clouds.No wind81%30.05 "Hg0 mi
2:35 AM36 °FLow clouds.No wind81%30.07 "Hg0 mi
2:15 AM36 °FLow clouds.No wind81%30.09 "Hg0 mi
1:55 AM36 °FLow clouds.No wind81%30.10 "Hg1 mi
1:35 AM36 °FLow clouds.No wind81%30.11 "Hg1 mi
1:15 AM36 °FLow clouds.No wind81%30.13 "Hg1 mi
12:55 AM36 °FLow clouds.5 mph81%30.14 "Hg1 mi
12:35 AM36 °FLow clouds.No wind81%30.14 "Hg1 mi
12:15 AM36 °FLow clouds.No wind81%30.15 "Hg1 mi
11:55 PM
Wed, Mar 25
36 °FLow clouds.5 mph81%30.16 "Hg1 mi
11:35 PM36 °FLow clouds.No wind81%30.17 "Hg1 mi
11:15 PM36 °FLow clouds.3 mph75%30.17 "Hg1 mi
10:55 PM36 °FLow clouds.3 mph75%30.18 "Hg1 mi
10:35 PM36 °FLow clouds.5 mph75%30.19 "Hg2 mi
10:15 PM36 °FLow clouds.8 mph75%30.20 "Hg3 mi
Weather by CustomWeather, © 2015

See weather overviewHow to use our weather pages